CW1419 Weather Reports


Display with metric or nautical units.
time (UTC)temp
F
wind
direction
speed
MPH
gust
MPH
rain 1hr
in
rain 24hr
in
rain mn
in
humidity
%
barometer
mb
20260503220502 65 263 12.0 28.0 0.00 0.00 0.00 42 1004.1
20260503220004 65 263 12.0 23.0 0.00 0.00 0.00 43 1004.0
20260503215504 65 263 9.0 23.0 0.00 0.00 0.00 43 1004.0
20260503215002 65 272 10.0 27.0 0.00 0.00 0.00 42 1004.2
20260503214507 65 236 15.0 27.0 0.00 0.00 0.00 42 1004.0
20260503214004 65 250 12.0 23.0 0.00 0.00 0.00 42 1004.2
20260503213503 65 260 10.0 28.0 0.00 0.00 0.00 43 1004.3
20260503213005 64 263 14.0 28.0 0.00 0.00 0.00 42 1004.5
20260503212503 65 281 14.0 28.0 0.00 0.00 0.00 42 1004.6
20260503212003 65 284 11.0 26.0 0.00 0.00 0.00 43 1004.5
20260503211503 64 256 15.0 26.0 0.00 0.00 0.00 42 1004.5
20260503211002 64 275 14.0 26.0 0.00 0.00 0.00 43 1004.5
20260503210502 65 246 12.0 25.0 0.00 0.00 0.00 43 1004.5
20260503210005 65 241 10.0 25.0 0.00 0.00 0.00 43 1004.5
20260503205504 64 150 12.0 23.0 0.00 0.00 0.00 43 1004.6
20260503205003 64 254 14.0 22.0 0.00 0.00 0.00 42 1004.7
20260503204523 64 255 14.0 22.0 0.00 0.00 0.00 44 1004.8
20260503204008 64 235 11.0 25.0 0.00 0.00 0.00 47 1005.0
20260503203505 63 249 14.0 25.0 0.00 0.00 0.00 47 1005.0
20260503203006 63 263 12.0 26.0 0.00 0.00 0.00 48 1005.0
20260503202504 62 242 13.0 26.0 0.00 0.00 0.00 48 1005.1
20260503202003 62 259 12.0 26.0 0.00 0.00 0.00 49 1005.3
20260503201508 62 271 12.0 23.0 0.00 0.00 0.00 49 1005.5
20260503201003 62 241 13.0 26.0 0.00 0.00 0.00 48 1005.6
20260503200505 62 227 12.0 26.0 0.00 0.00 0.00 49 1005.7
20260503200008 62 240 13.0 35.0 0.00 0.00 0.00 48 1005.8
20260503195506 62 248 14.0 35.0 0.00 0.00 0.00 47 1005.9
20260503195006 62 255 13.0 27.0 0.00 0.00 0.00 47 1005.9
20260503194508 62 246 15.0 29.0 0.00 0.00 0.00 46 1006.0
20260503194006 63 265 18.0 33.0 0.00 0.00 0.00 44 1005.9
20260503193504 62 231 12.0 33.0 0.00 0.00 0.00 46 1006.0
20260503193022 62 259 17.0 33.0 0.00 0.00 0.00 45 1006.1
20260503192504 62 275 16.0 36.0 0.00 0.00 0.00 43 1006.0
20260503192007 62 237 18.0 36.0 0.00 0.00 0.00 43 1006.0
20260503191505 62 252 17.0 32.0 0.00 0.00 0.00 42 1005.9
20260503191002 63 258 19.0 31.0 0.00 0.00 0.00 43 1005.9
20260503190504 62 265 19.0 29.0 0.00 0.00 0.00 42 1005.8
20260503190010 62 245 15.0 30.0 0.00 0.00 0.00 43 1006.0
20260503185503 62 261 13.0 30.0 0.00 0.00 0.00 43 1006.0
20260503185003 62 252 17.0 30.0 0.00 0.00 0.00 43 1006.1
20260503184516 62 255 17.0 34.0 0.00 0.00 0.00 44 1006.1
20260503184003 61 257 18.0 34.0 0.00 0.00 0.00 44 1006.1
20260503183510 61 267 19.0 34.0 0.00 0.00 0.00 44 1006.4
20260503183011 61 229 18.0 32.0 0.00 0.00 0.00 45 1006.5
20260503182505 61 229 18.0 29.0 0.00 0.00 0.00 46 1006.7
20260503182012 60 254 17.0 29.0 0.00 0.00 0.00 47 1006.7
20260503181514 60 232 11.0 27.0 0.00 0.00 0.00 49 1006.8
20260503181004 60 234 14.0 27.0 0.00 0.00 0.00 49 1006.9
20260503180509 60 236 12.0 27.0 0.00 0.00 0.00 50 1007.0
20260503180011 60 248 9.0 28.0 0.00 0.00 0.00 52 1007.0
20260503175504 59 264 8.0 28.0 0.00 0.00 0.00 52 1007.1
20260503175007 59 257 11.0 28.0 0.00 0.00 0.00 51 1007.1
20260503174515 59 239 8.0 29.0 0.00 0.00 0.00 52 1007.2
20260503174003 58 167 9.0 29.0 0.00 0.00 0.00 53 1007.3
20260503173507 58 201 10.0 21.0 0.00 0.00 0.00 53 1007.5
20260503173017 58 227 10.0 22.0 0.00 0.00 0.00 54 1007.5
20260503172509 57 248 10.0 25.0 0.00 0.00 0.00 55 1007.6
20260503172004 56 228 14.0 25.0 0.00 0.00 0.00 55 1007.6
20260503171514 56 225 14.0 25.0 0.00 0.00 0.00 55 1007.7
20260503171008 56 255 8.0 22.0 0.00 0.00 0.00 56 1007.8
20260503170507 56 238 12.0 22.0 0.00 0.00 0.00 57 1007.8
20260503151007 55 258 14.0 27.0 0.00 0.00 0.00 55 1009.3
20260503150508 55 270 13.0 29.0 0.00 0.00 0.00 54 1009.4
20260503131003 51 263 10.0 24.0 0.00 0.00 0.00 56 1010.2
20260503130502 51 262 11.0 24.0 0.00 0.00 0.00 55 1010.2
20260503110504 49 235 11.0 20.0 0.00 0.00 0.00 49 1010.2
20260503090506 47 234 8.0 13.0 0.00 0.00 0.00 51 1011.0
20260503081509 47 244 8.0 17.0 0.00 0.00 0.00 51 1011.4
20260503081008 47 237 9.0 17.0 0.00 0.00 0.00 51 1011.4
20260503080504 47 254 8.0 14.0 0.00 0.00 0.00 51 1011.4
20260503072504 47 247 10.0 16.0 0.00 0.00 0.00 51 1011.7
20260503072007 47 253 9.0 16.0 0.00 0.00 0.00 51 1011.7
20260503071513 47 261 7.0 16.0 0.00 0.00 0.00 51 1011.8
20260503071004 47 238 8.0 16.0 0.00 0.00 0.00 51 1011.8
20260503070504 47 238 9.0 16.0 0.00 0.00 0.00 51 1011.8
20260503055006 47 229 8.0 14.0 0.00 0.00 0.00 51 1012.4
20260503054516 47 247 9.0 14.0 0.00 0.00 0.00 51 1012.5
20260503054006 47 248 9.0 14.0 0.00 0.00 0.00 51 1012.5
20260503053505 47 246 8.0 17.0 0.00 0.00 0.00 51 1012.6
20260503053019 47 226 9.0 17.0 0.00 0.00 0.00 51 1012.7
20260503052506 47 242 9.0 15.0 0.00 0.00 0.00 51 1012.8
20260503052008 47 250 9.0 15.0 0.00 0.00 0.00 51 1012.7
20260503051505 47 277 9.0 15.0 0.00 0.00 0.00 51 1012.8
20260503051003 47 263 9.0 15.0 0.00 0.00 0.00 51 1012.8
20260503050504 47 249 9.0 15.0 0.00 0.00 0.00 51 1012.8
20260503050012 47 242 9.0 15.0 0.00 0.00 0.00 50 1012.7
20260503045505 47 244 8.0 13.0 0.00 0.00 0.00 50 1012.7
20260503045004 47 252 8.0 14.0 0.00 0.00 0.00 50 1012.7
20260503044503 47 254 9.0 14.0 0.00 0.00 0.00 50 1012.8
20260503044003 47 242 9.0 15.0 0.00 0.00 0.00 50 1012.8
20260503043502 47 243 9.0 15.0 0.00 0.00 0.00 50 1012.8
20260503043005 48 242 8.0 14.0 0.00 0.00 0.00 50 1012.9
20260503042503 48 247 9.0 12.0 0.00 0.00 0.00 50 1012.9
20260503042003 48 243 8.0 14.0 0.00 0.00 0.00 50 1012.9
20260503041506 48 250 9.0 14.0 0.00 0.00 0.00 50 1013.0
20260503041002 48 247 8.0 17.0 0.00 0.00 0.00 50 1013.0
20260503040502 48 255 8.0 17.0 0.00 0.00 0.00 50 1013.1
20260503040002 48 238 8.0 17.0 0.00 0.00 0.00 50 1013.1
20260503035502 48 236 8.0 13.0 0.00 0.00 0.00 49 1013.1
20260503035002 48 240 8.0 12.0 0.00 0.00 0.00 49 1013.1
20260503034505 48 240 8.0 14.0 0.00 0.00 0.00 49 1013.2
20260503034007 48 246 8.0 14.0 0.00 0.00 0.00 49 1013.2
20260503033504 48 229 7.0 12.0 0.00 0.00 0.00 49 1013.3
20260503033007 48 240 8.0 13.0 0.00 0.00 0.00 49 1013.3
20260503032503 48 236 8.0 13.0 0.00 0.00 0.00 49 1013.3
20260503032003 48 250 8.0 12.0 0.00 0.00 0.00 50 1013.3
20260503031516 49 245 6.0 13.0 0.00 0.00 0.00 50 1013.4
20260503031003 49 232 9.0 13.0 0.00 0.00 0.00 49 1013.4
20260503030502 49 223 6.0 11.0 0.00 0.00 0.00 50 1013.5
20260503030004 49 221 5.0 10.0 0.00 0.00 0.00 49 1013.6
20260503025508 49 235 6.0 10.0 0.00 0.00 0.00 49 1013.6
20260503025007 49 233 6.0 10.0 0.00 0.00 0.00 49 1013.7
20260503024508 49 232 5.0 9.0 0.00 0.00 0.00 49 1013.6
20260503024007 49 239 4.0 8.0 0.00 0.00 0.00 49 1013.7
20260503023503 49 231 4.0 8.0 0.00 0.00 0.00 49 1013.7
20260503023005 49 235 4.0 8.0 0.00 0.00 0.00 49 1013.8
20260503022503 49 238 4.0 8.0 0.00 0.00 0.00 49 1013.8
20260503022005 50 224 4.0 7.0 0.00 0.00 0.00 48 1013.8
20260503021519 50 224 2.0 8.0 0.00 0.00 0.00 48 1013.7
20260503021003 50 218 2.0 8.0 0.00 0.00 0.00 47 1013.8
20260503020503 50 234 2.0 7.0 0.00 0.00 0.00 47 1013.8
20260503020020 51 224 2.0 7.0 0.00 0.00 0.00 46 1013.7
20260503015503 51 214 2.0 6.0 0.00 0.00 0.00 44 1013.7
20260503015003 52 218 1.0 6.0 0.00 0.00 0.00 42 1013.6
20260503014510 52 220 2.0 6.0 0.00 0.00 0.00 41 1013.5
20260503014009 52 211 3.0 7.0 0.00 0.00 0.00 41 1013.5
20260503013503 52 226 2.0 9.0 0.00 0.00 0.00 40 1013.5
20260503013010 52 238 4.0 9.0 0.00 0.00 0.00 39 1013.4
20260503012508 53 244 4.0 9.0 0.00 0.00 0.00 39 1013.4
20260503012009 53 228 6.0 9.0 0.00 0.00 0.00 39 1013.3
20260503011508 53 248 5.0 9.0 0.00 0.00 0.00 39 1013.3
20260503011003 53 241 5.0 8.0 0.00 0.00 0.00 39 1013.3
20260503010503 53 257 3.0 8.0 0.00 0.00 0.00 39 1013.4
20260503010012 53 258 5.0 9.0 0.00 0.00 0.00 38 1013.3
20260503005504 53 243 4.0 9.0 0.00 0.00 0.00 37 1013.4
20260503005004 54 268 5.0 10.0 0.00 0.00 0.00 37 1013.4
20260503004518 54 258 5.0 10.0 0.00 0.00 0.00 37 1013.4
20260503004011 54 240 4.0 11.0 0.00 0.00 0.00 37 1013.4
20260503003506 54 270 6.0 11.0 0.00 0.00 0.00 37 1013.4
20260503003020 54 265 6.0 11.0 0.00 0.00 0.00 36 1013.4
20260503002504 54 269 3.0 11.0 0.00 0.00 0.00 37 1013.4
20260503002003 55 265 4.0 11.0 0.00 0.00 0.00 37 1013.4
20260503001521 55 273 5.0 11.0 0.00 0.00 0.00 36 1013.4
20260503001007 55 259 6.0 12.0 0.00 0.00 0.00 36 1013.5
20260503000503 55 252 7.0 13.0 0.00 0.00 0.00 35 1013.5
20260503000015 55 270 7.0 13.0 0.00 0.00 0.00 35 1013.5
20260502235503 55 248 7.0 16.0 0.00 0.00 0.00 35 1013.5
20260502235003 55 235 10.0 16.0 0.00 0.00 0.00 35 1013.5
20260502234518 55 248 5.0 16.0 0.00 0.00 0.00 35 1013.6
20260502234012 55 287 8.0 16.0 0.00 0.00 0.00 34 1013.7
20260502233509 55 262 9.0 16.0 0.00 0.00 0.00 34 1013.7
20260502233018 55 252 8.0 16.0 0.00 0.00 0.00 35 1013.8
20260502232506 55 262 7.0 16.0 0.00 0.00 0.00 35 1013.9
20260502232011 55 271 9.0 15.0 0.00 0.00 0.00 34 1014.0
20260502231523 55 257 10.0 15.0 0.00 0.00 0.00 34 1013.9
20260502231004 55 254 6.0 13.0 0.00 0.00 0.00 35 1014.0
20260502230503 55 297 8.0 14.0 0.00 0.00 0.00 34 1014.0
20260502230029 56 263 8.0 14.0 0.00 0.00 0.00 34 1014.0
20260502225507 56 265 5.0 13.0 0.00 0.00 0.00 34 1014.1
20260502225007 56 336 3.0 11.0 0.00 0.00 0.00 34 1014.1
20260502224523 56 279 2.0 11.0 0.00 0.00 0.00 36 1014.2
20260502224006 55 287 4.0 12.0 0.00 0.00 0.00 36 1014.2
20260502223504 55 264 5.0 12.0 0.00 0.00 0.00 35 1014.2
20260502223018 56 302 6.0 17.0 0.00 0.00 0.00 35 1014.3
20260502222502 55 284 7.0 17.0 0.00 0.00 0.00 35 1014.3
20260502222002 55 288 9.0 15.0 0.00 0.00 0.00 34 1014.3
20260502221503 55 275 7.0 12.0 0.00 0.00 0.00 36 1014.4
20260502221003 55 268 6.0 12.0 0.00 0.00 0.00 35 1014.5